When you browse on this site, cookies collect data to enhance your experience and personalize the content and advertising you see.
Visit our Privacy Policy to learn more. By continuing to use the site, you agree to this use of cookies and data.

Stündliche Wetter Bolshie Orly

Heute, 27 September, Sonntag

Zeit Temperatur Niederschläge Wind Luftdruck Luftfeuchtigkeit
00:00 +21°C° 0 mm 6 m/S 740 mmHg 56%
01:00 +20°C° 0 mm 6 m/S 740 mmHg 55%
02:00 +20°C° 0 mm 6 m/S 740 mmHg 61%
03:00 +19°C° 0 mm 6 m/S 740 mmHg 59%
04:00 +19°C° 0 mm 6 m/S 740 mmHg 56%
05:00 +18°C° 0 mm 7 m/S 739 mmHg 54%
06:00 +18°C° 0.1 mm 7 m/S 740 mmHg 53%
07:00 +18°C° 0.1 mm 7 m/S 740 mmHg 53%
08:00 +18°C° 0 mm 7 m/S 740 mmHg 49%
09:00 +17°C° 1 mm 7 m/S 741 mmHg 60%
10:00 +16°C° 1 mm 7 m/S 741 mmHg 72%
11:00 +15°C° 1 mm 7 m/S 741 mmHg 84%
12:00 +15°C° 1.9 mm 7 m/S 741 mmHg 85%
13:00 +16°C° 1.9 mm 6 m/S 742 mmHg 86%
14:00 +16°C° 1.9 mm 5 m/S 742 mmHg 88%
15:00 +16°C° 1.5 mm 5 m/S 742 mmHg 89%
16:00 +15°C° 1.5 mm 5 m/S 743 mmHg 90%
17:00 +15°C° 1.5 mm 5 m/S 744 mmHg 90%
18:00 +13°C° 0.1 mm 4 m/S 744 mmHg 90%
19:00 +12°C° 0.1 mm 4 m/S 745 mmHg 90%
20:00 +11°C° 0.1 mm 4 m/S 745 mmHg 90%
21:00 +11°C° 0 mm 4 m/S 746 mmHg 89%
22:00 +11°C° 0 mm 4 m/S 747 mmHg 88%
23:00 +11°C° 0 mm 4 m/S 748 mmHg 86%

Morgen, 28 September, Montag

Zeit Temperatur Niederschläge Wind Luftdruck Luftfeuchtigkeit
00:00 +11°C° 0 mm 4 m/S 748 mmHg 86%
01:00 +11°C° 0 mm 4 m/S 749 mmHg 85%
02:00 +11°C° 0 mm 4 m/S 749 mmHg 85%
03:00 +10°C° 0 mm 3 m/S 749 mmHg 87%
04:00 +10°C° 0 mm 3 m/S 750 mmHg 88%
05:00 +9°C° 0 mm 3 m/S 750 mmHg 90%
06:00 +9°C° 0 mm 3 m/S 750 mmHg 88%
07:00 +10°C° 0 mm 3 m/S 751 mmHg 87%
08:00 +10°C° 0 mm 2 m/S 751 mmHg 85%
09:00 +12°C° 0 mm 3 m/S 752 mmHg 77%
10:00 +14°C° 0 mm 3 m/S 752 mmHg 70%
11:00 +16°C° 0 mm 3 m/S 752 mmHg 62%
12:00 +17°C° 0 mm 3 m/S 752 mmHg 58%
13:00 +18°C° 0 mm 3 m/S 752 mmHg 54%
14:00 +19°C° 0 mm 2 m/S 752 mmHg 49%
15:00 +18°C° 0 mm 2 m/S 752 mmHg 54%
16:00 +17°C° 0 mm 2 m/S 752 mmHg 58%
17:00 +17°C° 0 mm 2 m/S 752 mmHg 62%
18:00 +16°C° 0 mm 2 m/S 752 mmHg 65%
19:00 +15°C° 0 mm 2 m/S 752 mmHg 69%
20:00 +12°C° 0 mm 3 m/S 752 mmHg 72%
21:00 +12°C° 0 mm 3 m/S 752 mmHg 71%
22:00 +12°C° 0 mm 3 m/S 751 mmHg 71%
23:00 +13°C° 0 mm 3 m/S 751 mmHg 70%

übermorgen, 29 September, Dienstag

Zeit Temperatur Niederschläge Wind Luftdruck Luftfeuchtigkeit
00:00 +12°C° 0 mm 3 m/S 751 mmHg 70%
01:00 +12°C° 0 mm 3 m/S 751 mmHg 69%
02:00 +12°C° 0 mm 4 m/S 751 mmHg 69%
03:00 +12°C° 0 mm 4 m/S 750 mmHg 68%
04:00 +12°C° 0 mm 4 m/S 750 mmHg 67%
05:00 +13°C° 0 mm 4 m/S 750 mmHg 66%
06:00 +13°C° 0 mm 4 m/S 750 mmHg 66%
07:00 +13°C° 0 mm 4 m/S 750 mmHg 65%
08:00 +13°C° 0 mm 4 m/S 750 mmHg 65%
09:00 +15°C° 0 mm 4 m/S 749 mmHg 62%
10:00 +17°C° 0 mm 4 m/S 749 mmHg 59%
11:00 +19°C° 0 mm 4 m/S 749 mmHg 56%
12:00 +19°C° 0 mm 4 m/S 749 mmHg 54%
13:00 +20°C° 0 mm 4 m/S 749 mmHg 52%
14:00 +20°C° 0 mm 4 m/S 748 mmHg 50%
15:00 +20°C° 0 mm 3 m/S 748 mmHg 56%
16:00 +19°C° 0 mm 3 m/S 748 mmHg 61%
17:00 +18°C° 0 mm 2 m/S 748 mmHg 66%
18:00 +17°C° 0 mm 2 m/S 747 mmHg 72%
19:00 +16°C° 0 mm 2 m/S 747 mmHg 77%
20:00 +15°C° 0 mm 2 m/S 747 mmHg 82%
21:00 +14°C° 0 mm 3 m/S 747 mmHg 83%
22:00 +13°C° 0 mm 3 m/S 747 mmHg 83%
23:00 +13°C° 0 mm 3 m/S 746 mmHg 83%

30 September, Mittwoch

Zeit Temperatur Niederschläge Wind Luftdruck Luftfeuchtigkeit
00:00 +13°C° 0 mm 3 m/S 746 mmHg 83%
01:00 +13°C° 0 mm 4 m/S 746 mmHg 83%
02:00 +12°C° 0 mm 4 m/S 745 mmHg 82%
03:00 +12°C° 0 mm 4 m/S 745 mmHg 82%
04:00 +12°C° 0 mm 5 m/S 745 mmHg 81%
05:00 +12°C° 0 mm 5 m/S 745 mmHg 80%
06:00 +12°C° 0 mm 5 m/S 745 mmHg 78%
07:00 +12°C° 0 mm 5 m/S 745 mmHg 75%
08:00 +13°C° 0 mm 6 m/S 744 mmHg 73%
09:00 +14°C° 0 mm 6 m/S 744 mmHg 68%
10:00 +15°C° 0 mm 6 m/S 745 mmHg 63%
11:00 +16°C° 0 mm 6 m/S 745 mmHg 59%
12:00 +16°C° 0 mm 6 m/S 744 mmHg 58%
13:00 +16°C° 0 mm 5 m/S 744 mmHg 58%
14:00 +17°C° 0 mm 5 m/S 744 mmHg 58%
15:00 +17°C° 0 mm 4 m/S 744 mmHg 60%
16:00 +17°C° 0 mm 4 m/S 744 mmHg 62%
17:00 +16°C° 0 mm 3 m/S 744 mmHg 64%
18:00 +15°C° 0 mm 4 m/S 744 mmHg 61%
19:00 +15°C° 0 mm 4 m/S 745 mmHg 58%
20:00 +14°C° 0 mm 5 m/S 745 mmHg 55%
21:00 +14°C° 0 mm 4 m/S 745 mmHg 56%
22:00 +13°C° 0 mm 4 m/S 744 mmHg 56%
23:00 +12°C° 0 mm 4 m/S 744 mmHg 56%

1 Oktober, Donnerstag

Zeit Temperatur Niederschläge Wind Luftdruck Luftfeuchtigkeit
00:00 +12°C° 0 mm 4 m/S 744 mmHg 59%
01:00 +12°C° 0 mm 4 m/S 744 mmHg 61%
02:00 +12°C° 0 mm 4 m/S 744 mmHg 63%
03:00 +12°C° 0 mm 4 m/S 744 mmHg 69%
04:00 +12°C° 0 mm 5 m/S 744 mmHg 74%
05:00 +13°C° 0 mm 5 m/S 744 mmHg 80%
06:00 +13°C° 0 mm 5 m/S 744 mmHg 76%
07:00 +12°C° 0 mm 4 m/S 744 mmHg 72%
08:00 +12°C° 0 mm 4 m/S 744 mmHg 67%
09:00 +12°C° 0 mm 4 m/S 744 mmHg 72%
10:00 +13°C° 0 mm 4 m/S 744 mmHg 76%
11:00 +13°C° 0 mm 4 m/S 744 mmHg 81%
12:00 +13°C° 0.2 mm 4 m/S 744 mmHg 84%
13:00 +12°C° 0.2 mm 4 m/S 744 mmHg 86%
14:00 +12°C° 0.2 mm 4 m/S 744 mmHg 89%
15:00 +13°C° 0 mm 4 m/S 744 mmHg 88%
16:00 +13°C° 0 mm 4 m/S 744 mmHg 87%
17:00 +13°C° 0 mm 4 m/S 744 mmHg 86%
18:00 +12°C° 0 mm 4 m/S 745 mmHg 88%
19:00 +12°C° 0 mm 3 m/S 745 mmHg 91%
20:00 +11°C° 0 mm 3 m/S 745 mmHg 93%
21:00 +10°C° 0 mm 3 m/S 745 mmHg 94%
22:00 +10°C° 0 mm 3 m/S 745 mmHg 95%
23:00 +10°C° 0 mm 2 m/S 745 mmHg 96%

2 Oktober, Freitag

Zeit Temperatur Niederschläge Wind Luftdruck Luftfeuchtigkeit
00:00 +10°C° 0 mm 3 m/S 745 mmHg 96%
01:00 +10°C° 0 mm 3 m/S 745 mmHg 96%
02:00 +10°C° 0 mm 3 m/S 745 mmHg 96%
03:00 +9°C° 0 mm 3 m/S 745 mmHg 95%
04:00 +9°C° 0 mm 3 m/S 745 mmHg 95%
05:00 +9°C° 0 mm 3 m/S 745 mmHg 94%
06:00 +9°C° 0 mm 3 m/S 745 mmHg 92%
07:00 +10°C° 0 mm 4 m/S 745 mmHg 89%
08:00 +10°C° 0 mm 4 m/S 745 mmHg 86%
09:00 +12°C° 0 mm 4 m/S 745 mmHg 82%
10:00 +13°C° 0 mm 4 m/S 746 mmHg 77%
11:00 +15°C° 0 mm 4 m/S 746 mmHg 73%
12:00 +17°C° 0 mm 4 m/S 746 mmHg 70%
13:00 +18°C° 0 mm 4 m/S 746 mmHg 67%
14:00 +19°C° 0 mm 4 m/S 746 mmHg 64%
15:00 +18°C° 0 mm 4 m/S 746 mmHg 67%
16:00 +18°C° 0 mm 4 m/S 746 mmHg 71%
17:00 +17°C° 0 mm 4 m/S 747 mmHg 74%
18:00 +15°C° 0.1 mm 4 m/S 747 mmHg 77%
19:00 +14°C° 0.1 mm 4 m/S 747 mmHg 80%
20:00 +13°C° 0.1 mm 4 m/S 747 mmHg 83%
21:00 +12°C° 0 mm 4 m/S 748 mmHg 85%
22:00 +12°C° 0 mm 4 m/S 748 mmHg 88%
23:00 +11°C° 0 mm 4 m/S 748 mmHg 91%
Mehr zeigen